This demonstration page uses our WeatherBlox Daily Observations layout. Learn more.

Left ArrowRight Arrow

44.8408, -93.29828

Hourly Observations for March 9, 2018

Temp ( °F °C ) Dew Point ( °F °C ) Humidity (%) Winds ( mph kmh ) Pressure ( in mb ) Visibility ( mi km ) Precip ( " mm )
12:53 am 00:53 Cloudy 20 -6.7 15 -9.4 81 81 WSW 3 6 30.07 1018 10 16 0.00 0.00
1:53 am 01:53 Cloudy 20 -6.7 16 -8.9 85 85 Calm 30.07 1018 10 16 0.00 0.00
2:53 am 02:53 Cloudy 20 -6.7 16 -8.9 85 85 Calm 30.05 1018 10 16 0.00 0.00
3:53 am 03:53 Cloudy 20 -6.7 16 -8.9 85 85 SW 3 6 30.05 1018 10 16 0.00 0.00
4:53 am 04:53 Mostly Cloudy 19 -7.2 15 -9.4 84 84 Calm 30.05 1018 10 16 0.00 0.00
5:53 am 05:53 Partly Cloudy 19 -7.2 15 -9.4 84 84 Calm 30.04 1017 8 13 0.00 0.00
6:53 am 06:53 Partly Cloudy with Mist and Fog 18 -7.8 15 -9.4 88 88 Calm 30.04 1017 6 10 0.00 0.00
7:53 am 07:53 Partly Cloudy with Mist and Fog 20 -6.7 17 -8.3 89 89 Calm 30.05 1018 6 10 0.00 0.00
8:53 am 08:53 Hazy 22 -5.6 17 -8.3 82 82 VRB 3 6 30.05 1018 6 10 0.00 0.00
9:53 am 09:53 Partly Cloudy 25 -3.9 18 -7.8 75 75 VRB 3 6 30.05 1018 8 13 0.00 0.00
10:53 am 10:53 Mostly Cloudy 28 -2.2 16 -8.9 60 60 Calm 30.06 1018 10 16 0.00 0.00
11:53 am 11:53 Mostly Cloudy 30 -1.1 16 -8.9 56 56 SSW 7 11 30.05 1018 10 16 0.00 0.00
12:53 pm 12:53 Mostly Cloudy 31 -0.6 14 -10 49 49 SE 7 11 30.04 1017 10 16 0.00 0.00
1:53 pm 13:53 Mostly Cloudy 32 0 15 -9.4 50 50 VRB 6 9 30.03 1017 10 16 0.00 0.00
2:53 pm 14:53 Mostly Cloudy 33 0.6 14 -10 45 45 SSW 5 7 30.02 1017 10 16 0.00 0.00
3:53 pm 15:53 Partly Cloudy 33 0.6 14 -10 45 45 Calm 30.02 1017 10 16 0.00 0.00
4:53 pm 16:53 Mostly Sunny 33 0.6 15 -9.4 47 47 S 5 7 30.02 1017 10 16 0.00 0.00
5:53 pm 17:53 Mostly Cloudy 32 0 15 -9.4 50 50 S 8 13 30.01 1016 10 16 0.00 0.00
6:53 pm 18:53 Mostly Cloudy 29 -1.7 16 -8.9 58 58 SSE 7 11 30.03 1017 10 16 0.00 0.00
7:53 pm 19:53 Mostly Cloudy 28 -2.2 16 -8.9 60 60 SE 6 9 30.04 1017 10 16 0.00 0.00
8:53 pm 20:53 Mostly Cloudy 27 -2.8 15 -9.4 61 61 SSE 6 9 30.04 1017 10 16 0.00 0.00
9:53 pm 21:53 Partly Cloudy 26 -3.3 15 -9.4 63 63 SE 5 7 30.04 1017 10 16 0.00 0.00
10:53 pm 22:53 Partly Cloudy 25 -3.9 16 -8.9 69 69 ESE 5 7 30.04 1017 10 16 0.00 0.00
11:53 pm 23:53 Mostly Cloudy 25 -3.9 15 -9.4 66 66 Calm 30.04 1017 10 16 0.00 0.00

Powered by AerisWeather